Teterboro Airport Teterboro US
ICAO: KTEB
IATA: TEB
Category: Medium
Scheduled Services: No

Elevation: 9 ft
TransAlt. 18000 ft.

Airport Communications:
New York Approach:127.6
ATIS:132.025
Teterboro Clearance:128.05
New York Departures: alternate frequency
New York Departures:126.7
Teterboro Ground:121.9
ARPT OPS:130.575
Millville Radio: alternate frequency
Millville Radio:122.65
Teterboro Tower:119.5
Teterboro Tower: alternate frequency

KTEB Zoom In..

Runways:

(A) RW 01 length 6997 ft width 150 ft
---- / hdg 15

(B) RW 06 length 6015 ft width 150 ft
ILS 108.90 / hdg 60

(C) RW 19 length 6997 ft width 150 ft
ILS 110.15 / hdg 195

(D) RW 24 length 6015 ft width 150 ft
---- / hdg 240

Location; KTEB
Day. 01 / Time. 16.51 Zulu
* Altimeter: 29.52
* Temperature: 10° c. 50°f.
* Wind from: KTE° Speed B kn.
Dewpoint: 03° c.
Visibility: 10 Statute Miles.
Clouds: Few 3700 ft.
Clouds: Broken 4700 ft.
Clouds: Overcast 6500 ft.

KTEB 011651Z 22014KT 10SM FEW037 BKN047 OVC065 10/03 A2952 RMK AO2 SLP994 T01000028

Going to: --> -->


Wind From KTE°
Speed B kn.

 
 
jpsmedia worldairports.se 2020   terms of use